Location: Newark
(45.6000°N, 12.8833°E)
Time: 22:18:21
(UTC+00:00)

Vanguard 3 - Pass Details

Date: 23 November 2019
Orbit: 508 x 3263 km, 33.3° (Epoch: 06 December)

Event Time Altitude Azimuth Distance (km) Brightness Sun altitude
Rises 18:31:54 0° 278° (W) 7,041 13.1 -31.2°
Reaches altitude 10° 18:39:02 10° 264° (W) 5,671 12.3 -32.5°
Maximum altitude 18:48:27 18° 229° (SW) 4,306 11.2 -34.1°
Drops below altitude 10° 18:55:47 10° 191° (S) 4,242 10.8 -35.4°
Sets 19:00:01 0° 173° (S) 4,753 11.0 -36.1°
